Precipitable_Water
0.60 0.58 0.56 0.54 0.52 0.50 0.50 0.54 0.60 0.67 0.71 0.69 0.66 0.62 0.60 0.56 0.54 0.52 0.52 0.50 0.48 0.48 0.48 0.50 0.50 0.50 0.50 0.52 0.52 0.52 0.52 0.52 0.50 0.48 0.46 0.44 0.44 0.44 0.44 0.44 0.46 0.46 0.44 0.44 0.44 0.44 0.42 0.42 0.42 0.42 0.42 0.42 0.42 0.40 0.40 0.40 0.38 0.38 0.36 0.36 0.36 0.36 0.36 0.36 0.36 0.36 0.36 0.36 0.36
0.58 0.58 0.56 0.52 0.50 0.52 0.56 0.62 0.67 0.71 0.73 0.69 0.66 0.62 0.60 0.56 0.54 0.52 0.52 0.50 0.50 0.50 0.50 0.50 0.50 0.52 0.52 0.52 0.52 0.52 0.52 0.50 0.48 0.46 0.46 0.44 0.44 0.44 0.44 0.44 0.46 0.44 0.44 0.44 0.42 0.42 0.42 0.42 0.42 0.40 0.42 0.42 0.42 0.42 0.40 0.40 0.40 0.38 0.36 0.36 0.36 0.36 0.36 0.36 0.36 0.36 0.36 0.36 0.36
0.60 0.58 0.56 0.56 0.58 0.62 0.66 0.69 0.71 0.71 0.71 0.69 0.66 0.64 0.60 0.56 0.54 0.52 0.52 0.50 0.50 0.50 0.48 0.50 0.50 0.52 0.52 0.54 0.54 0.52 0.48 0.48 0.46 0.46 0.46 0.44 0.46 0.46 0.44 0.44 0.44 0.44 0.44 0.42 0.42 0.42 0.42 0.42 0.40 0.40 0.40 0.40 0.40 0.40 0.40 0.40 0.40 0.38 0.36 0.36 0.38 0.38 0.38 0.38 0.38 0.36 0.36 0.36 0.36
0.62 0.60 0.60 0.62 0.66 0.66 0.67 0.67 0.69 0.71 0.71 0.71 0.67 0.64 0.60 0.58 0.54 0.50 0.50 0.48 0.48 0.48 0.48 0.50 0.52 0.52 0.52 0.52 0.48 0.46 0.46 0.46 0.46 0.46 0.46 0.46 0.46 0.46 0.44 0.44 0.44 0.44 0.42 0.42 0.42 0.40 0.40 0.40 0.38 0.38 0.38 0.38 0.38 0.38 0.38 0.38 0.38 0.38 0.38 0.38 0.38 0.38 0.38 0.38 0.38 0.38 0.36 0.36 0.36
0.64 0.64 0.64 0.66 0.66 0.66 0.66 0.67 0.69 0.73 0.75 0.71 0.67 0.66 0.62 0.58 0.54 0.50 0.48 0.48 0.48 0.50 0.50 0.52 0.52 0.52 0.50 0.48 0.48 0.46 0.46 0.46 0.46 0.46 0.46 0.46 0.46 0.44 0.44 0.44 0.42 0.42 0.42 0.40 0.40 0.40 0.40 0.38 0.38 0.36 0.36 0.36 0.36 0.36 0.36 0.36 0.38 0.38 0.38 0.40 0.40 0.40 0.38 0.38 0.36 0.36 0.36 0.34 0.34
0.62 0.64 0.64 0.64 0.64 0.66 0.66 0.69 0.71 0.73 0.73 0.69 0.66 0.62 0.60 0.56 0.52 0.50 0.48 0.48 0.50 0.52 0.54 0.54 0.54 0.50 0.48 0.48 0.46 0.46 0.46 0.44 0.46 0.46 0.46 0.44 0.44 0.44 0.42 0.42 0.42 0.42 0.40 0.40 0.38 0.38 0.38 0.36 0.36 0.36 0.36 0.36 0.36 0.36 0.36 0.36 0.36 0.38 0.38 0.38 0.38 0.38 0.38 0.36 0.36 0.36 0.34 0.34 0.34
0.62 0.64 0.64 0.64 0.64 0.64 0.67 0.71 0.75 0.73 0.67 0.64 0.62 0.58 0.56 0.54 0.52 0.50 0.52 0.52 0.54 0.54 0.54 0.52 0.48 0.46 0.46 0.46 0.46 0.46 0.46 0.44 0.46 0.46 0.44 0.44 0.44 0.42 0.42 0.40 0.40 0.40 0.38 0.38 0.38 0.38 0.38 0.38 0.36 0.36 0.36 0.36 0.36 0.36 0.38 0.38 0.38 0.38 0.38 0.36 0.38 0.38 0.36 0.36 0.36 0.36 0.34 0.34 0.32
0.62 0.62 0.62 0.62 0.64 0.67 0.71 0.75 0.73 0.69 0.64 0.60 0.58 0.54 0.54 0.52 0.52 0.52 0.52 0.52 0.52 0.50 0.48 0.46 0.44 0.44 0.44 0.44 0.46 0.46 0.46 0.44 0.44 0.44 0.44 0.44 0.42 0.42 0.40 0.40 0.38 0.38 0.38 0.38 0.38 0.38 0.38 0.38 0.38 0.38 0.38 0.38 0.38 0.38 0.38 0.38 0.38 0.38 0.36 0.36 0.36 0.36 0.36 0.36 0.36 0.36 0.34 0.32 0.32
0.60 0.60 0.60 0.64 0.66 0.69 0.71 0.69 0.67 0.64 0.60 0.58 0.56 0.54 0.54 0.52 0.52 0.50 0.50 0.50 0.48 0.46 0.46 0.44 0.42 0.42 0.44 0.44 0.44 0.44 0.44 0.44 0.44 0.44 0.44 0.44 0.42 0.40 0.40 0.38 0.38 0.38 0.38 0.38 0.40 0.40 0.40 0.40 0.38 0.38 0.38 0.38 0.38 0.38 0.38 0.38 0.38 0.36 0.36 0.36 0.36 0.36 0.36 0.36 0.34 0.34 0.32 0.32 0.30
0.58 0.60 0.62 0.64 0.62 0.60 0.62 0.64 0.62 0.60 0.58 0.56 0.56 0.54 0.54 0.54 0.52 0.52 0.50 0.48 0.48 0.46 0.44 0.42 0.42 0.42 0.44 0.44 0.44 0.44 0.44 0.44 0.44 0.44 0.44 0.44 0.42 0.42 0.40 0.38 0.38 0.38 0.38 0.40 0.40 0.40 0.40 0.40 0.38 0.38 0.38 0.38 0.38 0.38 0.38 0.38 0.36 0.34 0.34 0.34 0.34 0.34 0.34 0.34 0.34 0.32 0.32 0.30 0.30
0.58 0.60 0.62 0.60 0.58 0.58 0.58 0.58 0.58 0.58 0.56 0.56 0.56 0.54 0.54 0.54 0.52 0.52 0.50 0.48 0.46 0.46 0.44 0.44 0.44 0.44 0.44 0.44 0.46 0.46 0.46 0.46 0.44 0.44 0.44 0.44 0.42 0.42 0.40 0.40 0.38 0.38 0.40 0.40 0.40 0.42 0.40 0.38 0.38 0.38 0.38 0.38 0.36 0.36 0.36 0.36 0.34 0.34 0.34 0.34 0.34 0.32 0.32 0.32 0.32 0.30 0.30 0.28 0.28
0.60 0.60 0.58 0.56 0.56 0.56 0.56 0.58 0.58 0.56 0.54 0.54 0.54 0.52 0.52 0.52 0.52 0.50 0.50 0.48 0.46 0.46 0.44 0.44 0.44 0.44 0.44 0.44 0.44 0.44 0.46 0.46 0.44 0.44 0.44 0.44 0.44 0.42 0.42 0.40 0.40 0.40 0.40 0.42 0.42 0.40 0.40 0.38 0.36 0.36 0.36 0.34 0.34 0.34 0.34 0.34 0.34 0.32 0.32 0.32 0.32 0.32 0.30 0.30 0.30 0.30 0.28 0.28 0.26
0.60 0.58 0.56 0.56 0.56 0.56 0.56 0.56 0.56 0.54 0.52 0.52 0.52 0.50 0.50 0.50 0.50 0.48 0.48 0.46 0.46 0.46 0.44 0.44 0.44 0.42 0.42 0.42 0.44 0.44 0.44 0.44 0.44 0.44 0.44 0.44 0.44 0.42 0.42 0.42 0.40 0.40 0.40 0.40 0.40 0.40 0.38 0.36 0.36 0.34 0.34 0.34 0.34 0.34 0.34 0.34 0.34 0.32 0.32 0.30 0.30 0.30 0.30 0.28 0.28 0.28 0.26 0.26 0.24
0.58 0.56 0.56 0.56 0.56 0.56 0.56 0.54 0.54 0.52 0.52 0.50 0.50 0.48 0.48 0.48 0.48 0.46 0.46 0.46 0.44 0.44 0.44 0.42 0.42 0.42 0.42 0.42 0.42 0.42 0.44 0.44 0.44 0.44 0.44 0.44 0.42 0.42 0.42 0.40 0.40 0.40 0.38 0.38 0.38 0.38 0.36 0.36 0.36 0.34 0.34 0.34 0.34 0.34 0.34 0.34 0.34 0.32 0.30 0.30 0.28 0.28 0.28 0.28 0.28 0.26 0.26 0.24 0.22
0.56 0.56 0.56 0.56 0.56 0.56 0.56 0.56 0.54 0.52 0.50 0.50 0.48 0.48 0.46 0.46 0.46 0.44 0.44 0.44 0.44 0.44 0.44 0.42 0.42 0.42 0.42 0.42 0.42 0.42 0.42 0.42 0.42 0.42 0.42 0.42 0.42 0.40 0.40 0.40 0.40 0.38 0.38 0.36 0.38 0.36 0.36 0.36 0.36 0.34 0.34 0.34 0.34 0.34 0.34 0.34 0.32 0.32 0.30 0.30 0.28 0.28 0.28 0.28 0.28 0.26 0.24 0.20 0.18
0.54 0.56 0.56 0.56 0.56 0.56 0.56 0.56 0.54 0.52 0.50 0.48 0.48 0.46 0.46 0.44 0.44 0.44 0.42 0.42 0.42 0.42 0.42 0.42 0.42 0.42 0.42 0.42 0.42 0.42 0.42 0.42 0.42 0.42 0.40 0.40 0.40 0.40 0.40 0.38 0.38 0.38 0.38 0.38 0.38 0.36 0.36 0.36 0.36 0.36 0.34 0.34 0.34 0.34 0.32 0.32 0.32 0.32 0.30 0.30 0.28 0.28 0.26 0.26 0.26 0.24 0.22 0.20 0.18
0.56 0.56 0.58 0.58 0.58 0.56 0.56 0.54 0.54 0.52 0.50 0.48 0.48 0.46 0.46 0.44 0.42 0.42 0.42 0.42 0.42 0.42 0.42 0.42 0.44 0.44 0.44 0.44 0.44 0.44 0.44 0.42 0.42 0.42 0.40 0.40 0.40 0.40 0.40 0.38 0.38 0.38 0.38 0.38 0.38 0.36 0.36 0.36 0.36 0.36 0.36 0.34 0.34 0.34 0.34 0.32 0.32 0.32 0.30 0.30 0.28 0.26 0.26 0.26 0.24 0.22 0.20 0.20 0.18
0.56 0.58 0.58 0.58 0.58 0.56 0.56 0.54 0.52 0.50 0.50 0.48 0.48 0.46 0.46 0.44 0.42 0.42 0.42 0.42 0.42 0.42 0.42 0.44 0.44 0.44 0.44 0.44 0.44 0.44 0.44 0.44 0.42 0.42 0.42 0.42 0.40 0.40 0.40 0.40 0.40 0.40 0.38 0.38 0.38 0.36 0.36 0.36 0.36 0.36 0.36 0.36 0.34 0.34 0.34 0.32 0.32 0.30 0.30 0.28 0.28 0.26 0.26 0.24 0.22 0.22 0.20 0.20 0.18
0.58 0.58 0.58 0.58 0.58 0.56 0.54 0.54 0.52 0.50 0.48 0.48 0.46 0.46 0.44 0.44 0.42 0.42 0.42 0.42 0.42 0.44 0.44 0.44 0.44 0.44 0.46 0.46 0.46 0.46 0.46 0.44 0.44 0.42 0.42 0.42 0.42 0.40 0.40 0.40 0.40 0.40 0.40 0.40 0.38 0.38 0.36 0.36 0.36 0.36 0.36 0.36 0.36 0.34 0.34 0.32 0.30 0.30 0.28 0.28 0.26 0.26 0.24 0.24 0.22 0.20 0.18 0.18 0.16
0.58 0.58 0.58 0.58 0.56 0.56 0.54 0.52 0.52 0.50 0.48 0.48 0.46 0.46 0.46 0.44 0.44 0.44 0.44 0.44 0.44 0.46 0.46 0.46 0.46 0.46 0.46 0.46 0.46 0.46 0.46 0.44 0.44 0.44 0.42 0.42 0.42 0.42 0.42 0.42 0.42 0.42 0.40 0.40 0.40 0.38 0.38 0.38 0.38 0.38 0.38 0.36 0.36 0.34 0.32 0.30 0.30 0.28 0.26 0.26 0.26 0.24 0.24 0.22 0.20 0.18 0.16 0.16 0.14
0.58 0.58 0.58 0.56 0.56 0.54 0.52 0.52 0.52 0.50 0.48 0.48 0.48 0.48 0.46 0.46 0.46 0.46 0.46 0.46 0.46 0.46 0.46 0.46 0.46 0.46 0.46 0.46 0.46 0.46 0.46 0.44 0.44 0.44 0.44 0.44 0.42 0.42 0.42 0.42 0.42 0.42 0.42 0.40 0.40 0.38 0.38 0.38 0.38 0.38 0.38 0.36 0.34 0.34 0.32 0.30 0.28 0.26 0.26 0.24 0.24 0.24 0.22 0.20 0.18 0.16 0.16 0.14 0.14
0.58 0.58 0.56 0.56 0.54 0.52 0.52 0.52 0.52 0.50 0.50 0.48 0.48 0.48 0.48 0.48 0.48 0.48 0.48 0.48 0.48 0.48 0.48 0.48 0.48 0.46 0.46 0.46 0.46 0.46 0.46 0.46 0.44 0.44 0.44 0.44 0.44 0.44 0.44 0.44 0.44 0.42 0.42 0.40 0.40 0.40 0.40 0.40 0.40 0.38 0.36 0.34 0.32 0.32 0.30 0.30 0.28 0.26 0.24 0.22 0.22 0.22 0.20 0.16 0.16 0.14 0.14 0.14 0.14
0.58 0.56 0.56 0.54 0.52 0.52 0.52 0.52 0.50 0.50 0.48 0.48 0.48 0.50 0.50 0.50 0.50 0.50 0.50 0.50 0.50 0.48 0.48 0.48 0.48 0.46 0.46 0.46 0.46 0.46 0.46 0.46 0.44 0.44 0.44 0.44 0.44 0.44 0.44 0.44 0.44 0.42 0.42 0.40 0.40 0.40 0.40 0.40 0.40 0.36 0.34 0.32 0.30 0.30 0.28 0.28 0.26 0.24 0.22 0.20 0.20 0.18 0.16 0.14 0.14 0.14 0.14 0.14 0.16
0.56 0.56 0.54 0.54 0.52 0.52 0.52 0.52 0.50 0.50 0.50 0.50 0.50 0.50 0.50 0.50 0.50 0.50 0.50 0.48 0.48 0.48 0.48 0.46 0.46 0.46 0.46 0.46 0.46 0.46 0.46 0.44 0.44 0.44 0.44 0.44 0.44 0.46 0.46 0.46 0.44 0.42 0.40 0.40 0.40 0.40 0.42 0.40 0.38 0.34 0.30 0.30 0.28 0.28 0.26 0.24 0.24 0.22 0.20 0.18 0.16 0.14 0.14 0.14 0.14 0.14 0.14 0.16 0.16
0.56 0.54 0.54 0.52 0.52 0.52 0.52 0.52 0.50 0.50 0.50 0.50 0.50 0.52 0.52 0.50 0.50 0.50 0.48 0.48 0.46 0.46 0.46 0.46 0.46 0.46 0.46 0.46 0.46 0.46 0.46 0.44 0.44 0.44 0.44 0.44 0.46 0.46 0.46 0.46 0.44 0.42 0.40 0.40 0.40 0.40 0.40 0.38 0.36 0.34 0.30 0.28 0.26 0.26 0.24 0.22 0.20 0.18 0.18 0.16 0.16 0.14 0.12 0.14 0.14 0.14 0.16 0.16 0.18
0.54 0.54 0.52 0.52 0.52 0.52 0.52 0.52 0.50 0.50 0.50 0.52 0.52 0.52 0.50 0.50 0.50 0.48 0.48 0.46 0.46 0.44 0.44 0.44 0.44 0.44 0.44 0.44 0.44 0.44 0.44 0.44 0.44 0.44 0.44 0.44 0.46 0.46 0.46 0.46 0.44 0.42 0.40 0.38 0.38 0.38 0.38 0.36 0.32 0.30 0.28 0.26 0.26 0.24 0.22 0.20 0.18 0.16 0.16 0.14 0.14 0.14 0.14 0.14 0.14 0.16 0.16 0.18 0.18
0.54 0.52 0.52 0.52 0.52 0.52 0.52 0.52 0.52 0.52 0.52 0.52 0.52 0.50 0.50 0.50 0.48 0.48 0.46 0.46 0.44 0.44 0.44 0.44 0.42 0.42 0.42 0.42 0.42 0.42 0.44 0.44 0.44 0.44 0.46 0.46 0.46 0.46 0.46 0.46 0.44 0.42 0.38 0.36 0.36 0.34 0.34 0.32 0.30 0.30 0.28 0.26 0.24 0.20 0.18 0.16 0.16 0.14 0.14 0.14 0.14 0.14 0.14 0.14 0.16 0.16 0.18 0.18 0.18
0.52 0.52 0.52 0.52 0.52 0.52 0.52 0.52 0.52 0.52 0.52 0.52 0.52 0.50 0.50 0.48 0.48 0.46 0.46 0.44 0.44 0.44 0.42 0.42 0.42 0.42 0.42 0.42 0.42 0.44 0.44 0.44 0.46 0.46 0.46 0.46 0.46 0.46 0.44 0.44 0.42 0.40 0.38 0.34 0.34 0.32 0.32 0.30 0.28 0.28 0.28 0.26 0.24 0.20 0.16 0.14 0.14 0.12 0.12 0.12 0.14 0.14 0.14 0.16 0.16 0.16 0.18 0.18 0.18
0.50 0.50 0.52 0.52 0.52 0.52 0.52 0.52 0.52 0.52 0.52 0.52 0.50 0.50 0.48 0.48 0.46 0.46 0.44 0.44 0.42 0.42 0.40 0.40 0.40 0.42 0.42 0.42 0.44 0.44 0.46 0.46 0.46 0.46 0.46 0.46 0.46 0.44 0.44 0.42 0.40 0.40 0.36 0.34 0.32 0.32 0.30 0.28 0.28 0.28 0.26 0.26 0.22 0.20 0.16 0.12 0.12 0.12 0.12 0.14 0.14 0.16 0.16 0.16 0.16 0.16 0.16 0.18 0.18
0.52 0.52 0.52 0.52 0.52 0.52 0.54 0.54 0.54 0.52 0.52 0.50 0.50 0.48 0.48 0.46 0.46 0.44 0.44 0.44 0.40 0.38 0.36 0.38 0.40 0.40 0.42 0.44 0.44 0.46 0.46 0.46 0.46 0.46 0.46 0.44 0.44 0.44 0.42 0.40 0.38 0.38 0.36 0.34 0.32 0.30 0.28 0.28 0.28 0.26 0.26 0.24 0.20 0.18 0.16 0.14 0.12 0.14 0.14 0.14 0.16 0.16 0.16 0.16 0.16 0.16 0.16 0.18 0.18
0.54 0.54 0.56 0.56 0.54 0.54 0.54 0.54 0.52 0.52 0.52 0.50 0.48 0.48 0.46 0.46 0.46 0.44 0.44 0.40 0.36 0.36 0.36 0.38 0.38 0.40 0.42 0.44 0.44 0.46 0.46 0.46 0.44 0.44 0.44 0.44 0.44 0.42 0.40 0.38 0.36 0.36 0.34 0.32 0.32 0.30 0.28 0.28 0.26 0.26 0.24 0.22 0.18 0.16 0.14 0.12 0.12 0.14 0.14 0.16 0.16 0.16 0.16 0.16 0.16 0.16 0.16 0.16 0.18
0.56 0.56 0.56 0.56 0.56 0.54 0.54 0.54 0.52 0.50 0.50 0.48 0.48 0.48 0.46 0.46 0.44 0.42 0.40 0.38 0.34 0.34 0.36 0.36 0.38 0.40 0.42 0.42 0.44 0.44 0.44 0.44 0.44 0.44 0.44 0.42 0.42 0.40 0.38 0.36 0.34 0.34 0.32 0.30 0.30 0.30 0.28 0.26 0.26 0.24 0.20 0.18 0.16 0.14 0.12 0.12 0.14 0.14 0.14 0.16 0.16 0.16 0.16 0.16 0.16 0.16 0.16 0.16 0.16
0.58 0.58 0.58 0.56 0.54 0.54 0.52 0.52 0.50 0.48 0.48 0.48 0.48 0.46 0.46 0.44 0.42 0.40 0.38 0.36 0.34 0.34 0.36 0.36 0.38 0.40 0.40 0.42 0.42 0.42 0.42 0.42 0.42 0.42 0.42 0.42 0.40 0.38 0.36 0.34 0.32 0.32 0.30 0.30 0.30 0.30 0.28 0.26 0.24 0.20 0.18 0.16 0.14 0.14 0.14 0.14 0.14 0.14 0.16 0.16 0.16 0.16 0.16 0.16 0.16 0.16 0.16 0.16 0.18
0.58 0.58 0.56 0.54 0.54 0.52 0.50 0.50 0.48 0.48 0.48 0.48 0.46 0.44 0.42 0.40 0.38 0.36 0.34 0.34 0.34 0.36 0.36 0.38 0.38 0.40 0.40 0.40 0.40 0.40 0.42 0.42 0.42 0.42 0.40 0.38 0.38 0.36 0.34 0.32 0.32 0.30 0.30 0.30 0.30 0.28 0.28 0.26 0.22 0.18 0.16 0.14 0.14 0.14 0.14 0.14 0.14 0.14 0.16 0.16 0.16 0.16 0.16 0.16 0.16 0.16 0.16 0.16 0.18
0.58 0.56 0.54 0.54 0.52 0.50 0.50 0.48 0.48 0.48 0.46 0.46 0.42 0.40 0.38 0.36 0.36 0.34 0.34 0.34 0.36 0.36 0.36 0.38 0.38 0.40 0.40 0.40 0.40 0.40 0.40 0.40 0.40 0.40 0.38 0.38 0.34 0.32 0.32 0.30 0.30 0.30 0.30 0.30 0.28 0.28 0.26 0.24 0.22 0.18 0.16 0.14 0.14 0.14 0.14 0.14 0.14 0.14 0.16 0.16 0.16 0.16 0.16 0.16 0.16 0.16 0.16 0.16 0.18
0.56 0.54 0.52 0.52 0.50 0.50 0.50 0.48 0.48 0.46 0.44 0.42 0.38 0.36 0.36 0.34 0.34 0.34 0.36 0.36 0.36 0.36 0.36 0.36 0.38 0.38 0.38 0.38 0.38 0.40 0.40 0.38 0.38 0.38 0.36 0.36 0.34 0.32 0.30 0.30 0.30 0.30 0.28 0.28 0.28 0.26 0.24 0.22 0.20 0.18 0.16 0.14 0.14 0.14 0.14 0.14 0.14 0.14 0.14 0.14 0.14 0.14 0.14 0.16 0.16 0.16 0.16 0.16 0.16
0.54 0.54 0.52 0.50 0.50 0.50 0.48 0.48 0.46 0.42 0.40 0.38 0.36 0.36 0.34 0.34 0.36 0.36 0.36 0.36 0.34 0.34 0.34 0.36 0.36 0.36 0.36 0.36 0.36 0.38 0.38 0.38 0.36 0.36 0.34 0.34 0.34 0.32 0.30 0.28 0.28 0.28 0.28 0.28 0.26 0.24 0.22 0.20 0.20 0.18 0.16 0.16 0.14 0.14 0.14 0.14 0.14 0.14 0.14 0.14 0.14 0.14 0.14 0.14 0.14 0.16 0.16 0.16 0.16
0.54 0.52 0.52 0.50 0.50 0.50 0.48 0.44 0.42 0.40 0.36 0.36 0.36 0.36 0.36 0.36 0.36 0.34 0.34 0.34 0.34 0.32 0.34 0.34 0.34 0.34 0.34 0.34 0.36 0.36 0.36 0.36 0.36 0.34 0.34 0.32 0.32 0.30 0.30 0.28 0.26 0.26 0.26 0.26 0.26 0.24 0.22 0.20 0.20 0.18 0.18 0.16 0.14 0.14 0.14 0.14 0.14 0.14 0.14 0.14 0.14 0.14 0.14 0.14 0.14 0.16 0.16 0.16 0.16
0.54 0.52 0.52 0.50 0.50 0.48 0.46 0.40 0.38 0.38 0.36 0.36 0.36 0.36 0.36 0.34 0.34 0.34 0.34 0.34 0.32 0.32 0.34 0.34 0.34 0.34 0.34 0.34 0.34 0.34 0.34 0.34 0.34 0.32 0.32 0.30 0.30 0.28 0.28 0.26 0.26 0.26 0.26 0.26 0.24 0.24 0.22 0.20 0.20 0.20 0.18 0.16 0.16 0.14 0.14 0.14 0.14 0.14 0.14 0.14 0.14 0.14 0.14 0.14 0.14 0.14 0.14 0.14 0.16
0.52 0.52 0.52 0.50 0.48 0.46 0.44 0.38 0.38 0.36 0.36 0.36 0.36 0.34 0.34 0.34 0.34 0.32 0.32 0.32 0.34 0.34 0.34 0.32 0.32 0.32 0.34 0.34 0.32 0.32 0.32 0.32 0.32 0.30 0.30 0.28 0.28 0.28 0.26 0.26 0.26 0.26 0.26 0.26 0.24 0.24 0.22 0.22 0.20 0.20 0.18 0.18 0.16 0.16 0.14 0.14 0.14 0.14 0.14 0.14 0.12 0.12 0.12 0.14 0.14 0.14 0.14 0.14 0.14
0.52 0.52 0.50 0.48 0.46 0.44 0.40 0.38 0.38 0.36 0.36 0.36 0.34 0.34 0.32 0.32 0.32 0.32 0.32 0.32 0.32 0.34 0.32 0.32 0.32 0.32 0.32 0.32 0.30 0.30 0.30 0.30 0.28 0.28 0.28 0.28 0.26 0.26 0.26 0.26 0.26 0.26 0.26 0.26 0.24 0.24 0.24 0.22 0.20 0.20 0.20 0.18 0.16 0.16 0.16 0.14 0.14 0.14 0.12 0.12 0.12 0.12 0.12 0.12 0.14 0.14 0.14 0.14 0.14
Wind_Speed
19 19 19 20 20 20 20 21 22 23 23 23 24 26 27 28 29 30 31 31 32 32 32 32 32 31 31 31 31 31 31 31 31 32 32 32 33 33 33 33 34 34 35 36 36 37 37 38 38 38 38 38 39 39 39 39 39 40 40 40 40 41 41 42 43 43 44 44 44
19 20 20 20 20 21 21 22 23 24 24 24 25 26 27 27 28 30 31 31 31 31 31 32 32 31 31 31 31 31 32 32 32 32 32 32 33 33 33 33 34 35 35 36 37 37 38 38 38 38 39 39 39 39 39 40 40 40 41 41 41 41 42 43 43 43 44 44 44
20 20 21 21 21 21 22 22 23 24 24 25 26 26 27 27 28 29 30 31 31 30 31 31 31 31 31 31 32 32 32 32 32 32 32 33 33 33 33 34 34 35 36 36 37 38 38 39 39 39 39 39 39 39 40 40 40 40 41 41 41 42 42 43 43 43 43 44 44
21 21 21 21 22 22 22 22 22 24 25 26 27 27 28 28 29 30 31 31 30 30 30 30 31 31 31 32 32 33 33 33 32 32 32 33 33 33 34 34 35 36 37 37 38 38 39 39 39 39 39 39 39 40 40 40 41 41 41 41 41 41 42 42 42 43 43 43 44
22 22 22 22 22 23 23 23 23 24 26 27 28 28 28 28 29 30 30 31 30 30 30 30 31 31 32 32 33 33 33 33 33 32 32 33 33 34 34 35 36 37 38 38 39 39 40 40 40 40 39 39 39 40 40 40 41 41 41 41 41 41 41 42 42 42 43 43 43
23 23 23 23 23 24 24 25 25 25 26 27 28 28 28 28 29 29 30 30 30 30 30 30 31 31 32 33 33 33 33 33 33 32 32 33 34 35 35 36 37 38 39 40 40 40 40 40 40 39 39 39 39 40 40 40 40 40 41 41 41 41 41 42 42 42 43 43 43
23 23 24 24 24 25 26 27 27 26 26 27 27 28 28 28 28 28 29 29 30 30 30 30 31 32 32 33 33 33 33 33 33 33 33 34 35 36 37 38 38 39 40 40 40 40 40 40 39 39 39 39 39 40 40 41 40 40 41 41 41 41 42 42 43 43 43 43 43
23 24 24 25 25 27 28 28 27 27 27 27 27 27 28 28 28 28 29 29 29 30 30 31 32 32 32 32 32 33 33 33 33 33 34 35 36 37 38 39 40 40 41 41 41 41 40 40 40 39 39 40 40 40 41 41 41 41 41 41 42 42 42 43 43 43 43 42 43
23 24 25 25 26 27 27 27 26 26 27 27 27 28 28 28 28 28 29 29 30 30 31 31 32 32 32 32 32 33 33 33 33 34 35 36 37 38 39 40 41 41 41 41 41 41 41 41 41 40 40 40 40 41 41 41 41 41 41 42 42 42 43 43 43 43 43 43 43
23 24 25 26 26 26 25 25 26 26 27 27 28 28 28 28 29 29 29 30 30 31 31 32 32 32 32 32 32 33 33 33 34 35 36 37 38 39 40 41 41 41 41 41 41 41 41 42 41 41 40 40 40 41 41 41 41 41 42 42 42 42 43 43 43 43 43 44 44
23 24 25 25 25 25 25 25 26 27 27 28 28 28 29 29 29 29 30 30 31 32 32 32 32 32 32 32 32 33 33 34 35 36 37 38 38 39 40 41 41 41 41 41 42 42 42 42 42 41 40 40 41 41 41 42 41 41 42 42 42 42 43 43 43 43 44 44 45
24 24 25 25 24 24 25 26 26 27 28 28 29 29 29 29 30 30 31 32 32 33 33 33 33 32 32 32 33 33 34 35 36 37 38 38 39 40 40 41 41 41 41 42 42 42 42 42 41 41 40 40 41 41 41 41 41 42 42 42 42 43 43 43 44 44 45 45 46
24 24 24 24 24 25 25 26 27 27 28 28 29 29 30 30 31 31 32 33 33 34 34 34 33 33 33 33 33 34 35 36 37 37 38 39 39 40 41 41 41 41 42 42 42 42 42 41 41 41 40 41 41 41 41 41 42 42 42 42 43 43 44 44 45 45 45 46 46
24 24 24 25 25 25 26 26 27 27 28 28 29 30 30 31 32 32 33 33 34 34 35 34 34 34 34 34 35 35 36 36 37 38 38 39 39 40 40 41 41 41 41 41 41 41 41 41 41 40 41 41 41 41 41 42 42 42 43 43 43 44 44 45 45 45 46 46 47
24 24 24 25 26 26 27 27 27 28 28 29 29 30 31 32 33 33 34 34 35 35 35 35 35 35 35 35 35 36 36 37 37 38 38 39 39 39 40 40 40 40 41 41 41 41 40 40 40 40 41 41 41 42 42 42 42 43 43 43 44 44 45 45 45 46 46 46 47
24 24 25 26 26 27 27 27 28 28 28 29 30 31 32 33 34 34 35 35 35 35 35 35 35 35 36 36 36 36 37 37 38 38 38 39 39 39 39 39 39 40 40 40 40 40 40 40 40 41 41 42 42 42 43 43 43 43 43 44 44 45 45 45 45 46 46 46 46
24 25 26 26 27 27 27 27 28 28 29 30 31 32 32 33 34 35 35 35 35 35 35 35 35 36 36 36 37 37 37 38 38 38 39 39 39 39 39 39 39 40 40 40 40 40 40 40 41 41 42 42 42 42 42 42 42 43 43 44 44 45 45 45 45 46 46 46 46
25 26 26 27 27 27 27 28 28 29 30 31 32 32 33 34 34 35 35 35 35 35 35 36 36 36 36 37 37 37 38 38 39 39 39 39 39 39 39 39 39 40 40 40 40 40 41 41 41 42 42 42 42 42 42 42 43 43 44 44 45 45 45 45 45 45 45 45 45
26 26 27 27 27 27 28 28 29 30 31 31 32 33 34 34 35 35 35 35 35 35 36 36 37 37 37 37 38 38 38 39 39 39 39 39 39 39 39 39 40 40 40 40 40 40 41 41 42 42 42 42 42 42 42 43 44 44 44 45 45 45 45 45 45 45 45 45 44
26 27 27 27 27 27 28 28 29 30 31 32 33 34 35 35 36 35 35 35 36 36 37 37 37 38 38 38 38 39 39 39 39 39 39 39 39 39 39 40 40 40 40 40 40 41 41 42 42 42 42 42 42 43 43 44 44 45 45 45 45 45 45 44 44 44 44 43 43
26 26 26 27 27 27 28 29 30 31 32 33 34 35 36 36 36 36 36 36 37 37 38 38 38 39 39 39 39 40 40 40 39 39 39 39 39 39 39 40 40 40 40 40 41 41 42 42 42 42 42 43 43 44 44 45 45 45 44 44 44 44 44 44 44 43 43 42 41
26 26 26 27 27 27 28 29 31 32 33 34 35 36 36 36 36 36 36 37 38 38 38 39 39 39 40 40 40 40 40 40 40 39 39 39 39 39 39 39 39 40 40 40 41 42 42 42 42 42 43 44 44 45 45 44 44 44 44 44 44 44 43 43 42 42 41 40 39
26 26 26 27 27 28 29 30 32 33 34 35 36 36 36 36 36 37 37 38 38 38 39 39 39 40 40 40 40 40 40 40 40 40 39 39 39 39 39 39 39 40 40 41 42 42 42 42 42 43 44 44 44 44 44 44 43 43 43 43 43 43 42 42 41 40 39 38 36
25 26 26 27 28 29 30 31 32 33 35 35 36 36 36 36 36 37 37 38 38 38 39 39 40 40 40 40 40 40 40 40 40 40 40 39 39 39 39 39 39 40 41 42 42 42 42 42 42 43 44 44 44 43 43 43 43 43 43 43 42 42 41 40 39 38 37 36 34
25 26 27 28 29 31 32 32 33 34 35 36 36 36 36 36 37 37 38 38 38 39 39 39 40 40 40 41 41 40 40 40 40 40 40 39 39 39 39 39 39 40 41 42 42 42 42 42 42 43 43 43 43 42 42 42 42 42 42 42 41 40 40 39 37 36 35 34 32
26 27 28 29 31 31 32 33 34 35 36 36 36 36 36 37 37 38 38 38 39 39 40 40 41 41 41 41 41 41 40 40 40 39 39 39 39 39 39 39 40 41 41 42 42 42 41 42 42 42 42 42 42 42 42 42 42 41 41 40 39 38 38 37 36 34 33 32 31
27 28 29 30 31 32 33 34 35 35 35 35 36 36 37 38 38 38 39 39 40 40 41 41 42 42 42 42 41 41 40 40 40 39 39 38 38 38 39 39 40 41 42 42 42 41 41 41 41 41 41 41 41 41 41 41 41 40 39 38 37 36 35 35 34 33 32 31 30
27 29 30 30 31 32 33 34 35 35 35 36 36 37 38 38 38 39 39 40 41 42 42 42 42 42 42 42 41 41 40 40 39 39 38 38 38 38 39 39 40 41 41 41 41 41 41 40 40 40 40 40 40 40 40 40 40 39 37 36 35 34 34 33 32 31 30 30 29
28 29 29 30 31 32 33 34 34 35 36 36 37 37 38 38 39 40 41 42 42 43 43 43 43 43 42 42 41 41 40 39 39 38 38 38 38 38 39 40 40 41 41 41 41 40 40 39 40 40 40 40 40 40 39 39 38 36 35 34 33 32 32 31 30 30 29 29 29
28 28 29 30 31 32 33 34 35 35 36 37 37 38 38 39 40 41 42 43 43 43 43 43 43 43 42 42 41 40 40 39 38 38 37 38 38 39 39 40 41 41 41 41 40 39 39 39 39 39 39 39 39 38 38 37 35 34 33 32 31 31 30 29 29 29 28 28 28
28 29 30 31 32 33 34 35 35 36 37 37 38 38 39 40 41 42 43 43 43 43 43 43 43 42 42 41 41 40 39 38 37 37 37 37 38 39 39 40 41 41 41 40 39 39 38 38 38 38 39 38 38 37 36 34 33 32 31 30 29 29 28 28 28 28 27 27 27
29 29 30 32 33 34 34 35 36 36 37 38 39 39 40 41 42 42 43 43 43 43 43 43 43 42 42 41 40 39 38 37 37 37 37 37 38 38 39 40 41 40 40 39 38 38 38 38 38 38 37 37 36 35 34 32 31 30 29 28 28 27 27 27 27 26 26 26 25
30 31 32 32 33 34 35 36 36 37 38 39 40 40 41 42 42 43 43 43 43 43 43 43 42 42 41 40 39 38 37 37 36 37 37 38 38 39 39 40 40 40 39 38 37 37 37 37 37 36 36 35 34 33 31 30 29 28 27 27 26 26 26 26 25 25 25 25 24
31 32 33 33 34 35 35 36 37 38 39 40 41 41 42 42 42 43 43 43 43 43 43 42 42 41 40 40 39 38 37 37 37 37 37 38 38 39 39 40 40 39 38 37 36 36 36 36 35 35 34 33 32 31 30 29 28 27 26 25 25 25 25 25 24 24 24 24 24
32 33 34 34 35 35 36 37 38 39 40 41 41 42 42 42 42 43 43 43 43 43 42 42 41 41 40 39 38 37 37 37 37 37 38 38 39 39 39 39 39 38 37 36 35 35 35 34 34 33 32 31 30 29 28 27 26 25 24 24 24 24 24 24 24 24 23 23 23
33 33 34 35 36 36 37 38 39 40 41 41 41 42 42 42 42 43 43 43 42 42 42 41 41 40 39 38 37 37 36 36 37 37 38 38 38 38 38 38 38 37 35 34 34 33 33 33 32 31 30 29 28 27 26 25 24 23 23 23 23 23 23 23 23 23 23 23 23
33 34 35 35 36 37 38 39 40 40 41 41 41 42 42 42 43 42 42 42 42 41 41 41 40 39 38 37 37 36 36 36 37 37 38 38 38 38 37 37 36 35 34 33 32 32 32 31 31 30 29 28 27 26 25 24 23 22 22 22 22 22 22 22 22 22 22 22 23
34 34 35 36 37 38 39 40 40 41 41 41 41 42 42 42 42 42 42 41 41 41 41 40 39 38 37 37 36 36 36 37 37 37 38 38 37 37 36 35 35 34 33 32 31 31 30 30 29 28 27 26 25 24 23 23 22 21 21 21 21 22 22 22 22 22 22 22 23
34 35 36 36 38 39 39 40 40 41 41 41 42 42 42 42 41 41 41 41 40 40 40 39 38 37 37 36 36 36 37 37 37 37 37 37 36 35 35 34 33 33 32 30 30 29 29 28 27 26 25 24 24 23 22 21 21 20 20 20 21 21 21 21 21 21 22 22 23
35 36 36 37 38 39 40 40 40 41 41 41 42 42 41 41 41 41 40 40 40 39 39 38 37 37 37 36 36 37 37 37 37 37 36 36 35 34 33 33 32 31 30 29 28 27 27 26 26 25 24 23 22 22 21 20 20 20 20 20 20 21 21 21 21 21 22 22 22
35 36 37 38 39 39 40 40 41 41 41 41 41 41 41 40 40 40 39 39 39 38 38 37 37 37 37 37 37 37 37 37 37 36 36 35 34 33 32 31 31 30 29 28 27 26 25 25 24 24 23 22 21 21 20 19 19 19 19 20 20 20 21 21 21 21 21 22 22
Wind_Direction
301 300 300 300 301 301 302 303 305 307 309 309 308 307 306 307 307 307 307 306 305 304 303 303 303 304 305 307 308 309 310 310 309 308 307 307 307 307 307 308 308 308 308 308 307 307 307 307 307 307 307 306 306 306 306 307 308 308 308 308 308 308 308 308 308 307 307 306 306
301 301 300 300 300 300 300 301 303 306 308 309 308 307 307 307 307 307 307 306 305 305 304 303 303 304 305 307 308 309 310 309 308 307 307 306 307 307 307 307 307 307 307 307 307 307 307 307 307 307 307 307 307 307 307 307 308 308 309 309 308 308 308 308 307 307 307 306 306
301 300 300 300 299 299 299 301 303 305 307 308 308 307 306 306 306 306 306 306 307 307 306 304 304 304 305 307 308 309 309 308 308 307 306 306 307 307 307 307 307 307 307 307 307 307 307 308 308 308 307 307 307 307 307 307 308 309 309 309 309 309 308 308 307 307 307 307 306
301 300 300 299 299 299 299 300 301 303 304 305 306 306 306 306 306 306 306 306 307 307 306 305 305 305 306 307 308 308 308 308 307 307 306 306 307 307 307 307 307 307 307 307 308 308 308 308 308 308 308 308 308 307 307 308 308 309 309 309 309 309 309 308 308 308 307 307 307
301 300 299 298 298 298 298 298 299 300 301 303 304 305 305 306 306 306 306 306 306 306 306 306 306 306 306 307 307 308 308 308 307 307 307 306 306 307 307 307 307 307 308 308 308 309 309 309 309 309 308 308 308 308 308 308 309 310 310 310 310 310 309 309 308 308 308 307 307
301 300 299 298 298 298 297 297 297 297 299 301 303 304 305 306 307 307 306 306 306 306 306 306 307 307 307 307 308 308 308 308 307 307 306 306 306 307 307 308 308 308 309 309 309 310 310 310 309 309 309 308 308 308 309 309 310 310 310 310 310 310 310 309 309 308 308 308 307
302 301 300 299 299 298 298 298 298 299 300 302 304 305 307 308 308 308 308 307 307 307 308 308 308 308 308 308 308 308 308 307 307 307 306 307 307 308 308 309 309 309 310 310 310 310 311 310 310 309 309 309 309 309 310 310 311 311 310 310 310 310 310 310 309 309 308 308 308
302 302 301 301 300 300 300 301 302 303 305 306 307 308 309 309 310 309 308 308 308 308 309 310 309 309 308 308 307 307 307 307 306 307 307 307 308 308 308 309 309 310 310 310 310 310 310 310 310 309 309 309 310 310 310 311 311 311 310 310 310 310 309 309 309 309 309 309 310
304 303 303 303 302 302 303 305 306 307 308 308 309 309 310 310 310 309 308 308 309 310 311 311 310 309 308 307 307 306 306 306 306 307 307 308 308 308 308 309 309 309 309 310 310 310 310 310 309 309 309 310 310 310 310 311 311 311 310 310 310 310 309 309 309 309 310 311 311
304 304 304 304 304 305 306 307 308 309 309 309 310 310 310 310 309 309 308 309 309 310 311 311 310 309 308 306 306 306 306 306 307 307 308 307 307 307 307 307 308 308 308 308 309 309 309 309 309 309 310 310 310 310 310 310 310 310 310 310 310 310 310 309 310 310 311 312 312
305 304 305 305 306 307 308 308 308 309 310 310 310 310 310 309 309 309 309 310 310 310 310 310 310 308 307 306 305 305 306 307 307 308 307 306 306 305 305 306 306 307 307 308 308 309 309 309 310 310 310 310 310 310 310 310 310 310 310 310 310 310 310 310 311 312 312 313 313
305 305 306 306 307 307 308 308 309 310 310 311 311 311 310 310 310 310 310 311 310 310 310 309 308 307 306 305 305 306 306 307 307 307 306 305 305 304 305 305 306 306 307 307 308 309 309 310 310 310 311 311 311 311 311 311 311 311 311 311 310 311 311 311 311 312 312 313 313
306 306 306 306 306 307 308 308 309 310 311 312 312 311 311 311 311 311 311 311 311 310 309 308 307 307 306 306 306 307 307 307 307 306 306 305 304 304 305 305 305 306 306 307 308 309 309 310 310 311 311 311 311 311 311 311 312 311 311 311 311 311 311 311 312 312 312 313 313
307 307 306 306 306 307 308 308 310 311 312 312 312 312 312 312 312 312 312 311 310 309 309 308 308 308 308 308 309 309 309 309 308 307 306 305 305 305 305 305 305 306 306 307 308 309 310 310 311 311 311 311 311 311 312 312 312 312 311 311 311 311 311 311 312 312 312 313 313
307 306 305 305 305 306 307 309 310 311 311 312 312 312 312 312 312 312 311 310 310 309 309 309 309 310 310 311 311 311 310 310 309 308 307 306 306 305 305 305 305 306 306 307 308 309 310 310 311 311 311 312 312 312 312 312 312 311 311 311 311 311 312 312 312 312 313 312 312
306 305 305 305 305 306 308 309 310 310 311 311 311 311 311 311 311 311 310 310 309 310 310 310 310 311 311 312 312 311 311 310 309 309 308 307 306 306 305 305 305 306 307 308 309 309 310 311 311 311 312 312 312 312 312 311 311 311 311 311 312 312 312 312 312 312 312 312 312
306 305 305 305 305 306 307 308 309 310 310 310 311 311 311 311 311 310 310 310 310 311 311 311 311 311 311 311 311 311 311 310 310 309 308 307 307 306 306 305 306 306 307 308 309 310 311 311 312 312 312 312 312 311 311 311 311 311 312 312 312 312 312 312 312 312 312 312 312
306 305 305 305 306 306 307 308 309 310 310 310 311 310 310 310 310 310 311 311 312 312 312 312 311 311 311 311 311 311 310 310 310 309 308 308 307 306 306 306 306 307 308 309 309 310 311 312 312 312 312 312 311 311 311 311 312 312 312 312 312 312 312 312 312 312 312 313 312
306 306 306 306 306 307 308 309 309 310 310 311 311 310 310 310 311 311 312 312 313 313 312 312 312 312 312 312 311 311 310 310 310 309 308 308 307 306 306 306 307 307 308 309 310 311 312 312 312 312 312 312 311 311 312 312 312 312 312 312 312 312 312 312 312 313 313 313 312
306 306 306 307 308 308 309 309 310 310 311 311 311 310 310 310 311 312 312 313 313 313 313 312 312 312 312 312 312 311 311 310 310 309 308 308 307 306 306 307 308 308 309 310 311 312 312 312 312 312 312 312 312 312 312 312 312 312 312 312 312 312 312 313 313 313 313 313 313
307 307 308 308 309 309 310 310 310 310 310 310 310 310 310 310 311 313 313 314 314 314 314 313 313 313 313 312 312 311 311 310 310 309 308 307 307 307 307 308 309 309 311 312 312 313 312 312 312 312 312 312 312 313 313 312 312 312 312 312 312 313 313 313 313 313 313 313 313
308 308 309 309 309 310 310 310 310 309 309 309 309 309 310 311 313 313 314 314 315 315 315 315 314 314 313 312 312 311 311 310 309 308 308 307 307 308 308 309 310 311 312 313 313 312 312 311 311 311 311 312 312 313 313 313 312 312 312 313 313 313 314 314 314 314 313 313 313
309 309 309 309 309 309 309 309 309 309 308 308 309 310 311 313 314 314 315 315 316 316 316 316 315 314 314 313 312 311 311 310 309 309 308 308 308 309 310 311 311 312 313 312 312 311 311 311 311 311 311 311 312 313 313 313 313 313 313 313 314 314 314 314 314 314 314 313 313
309 309 308 308 308 308 308 308 308 308 308 309 310 311 313 314 314 315 315 316 316 316 316 316 316 315 314 313 312 311 310 310 309 309 309 309 310 310 311 312 312 312 312 312 311 311 310 310 310 310 311 312 312 313 313 313 313 314 314 314 314 315 315 314 314 314 314 314 314
309 308 308 308 308 308 309 309 309 309 310 310 311 312 313 314 314 315 316 316 316 317 316 316 315 314 313 312 312 311 310 310 310 310 310 310 310 311 311 311 311 311 311 311 311 311 311 310 310 310 311 312 313 313 313 314 314 314 315 315 315 315 315 315 315 315 315 315 315
308 308 308 308 309 310 310 310 310 311 312 312 312 312 313 314 314 315 316 316 316 316 315 315 314 313 312 312 311 311 310 310 310 310 310 310 310 310 310 309 310 310 310 311 311 311 311 311 311 312 312 313 314 314 314 314 315 315 315 315 315 315 315 315 315 315 316 316 316
309 309 309 310 311 312 312 312 312 312 312 312 312 312 313 314 314 315 316 316 316 315 314 314 313 312 312 311 311 310 310 310 310 310 310 310 309 308 308 308 309 309 310 311 311 311 312 312 312 313 314 314 314 315 315 315 315 315 315 315 315 315 316 316 316 316 316 316 316
309 310 311 312 313 313 314 314 313 312 311 311 311 312 313 314 315 315 316 315 315 315 314 314 313 313 312 312 311 310 310 310 310 310 309 309 308 307 307 307 309 310 311 311 311 311 312 312 313 314 315 315 315 315 315 316 315 315 315 315 316 316 316 317 317 317 317 317 317
310 311 313 314 315 315 314 313 311 310 310 310 311 312 313 314 315 315 316 315 315 315 314 314 314 313 312 312 311 310 310 310 310 309 309 308 307 307 307 308 310 311 311 311 312 312 312 313 314 315 315 316 316 316 316 316 316 316 316 316 316 317 317 318 318 318 319 318 318
310 312 314 315 315 315 313 311 310 309 310 311 312 313 314 315 315 316 316 316 315 315 314 314 313 313 312 311 311 311 310 310 309 308 308 307 307 307 308 309 310 311 311 311 312 312 313 314 315 315 316 316 316 316 316 316 316 316 316 317 317 318 319 319 320 320 320 320 320
311 312 313 314 314 313 311 310 309 310 310 311 313 314 315 316 316 316 316 316 315 315 314 313 313 312 311 311 311 311 310 310 309 308 307 307 307 308 309 310 311 311 311 312 312 313 314 315 315 316 316 317 317 316 316 316 316 316 317 317 318 319 320 321 322 322 323 323 323
310 311 312 313 312 311 310 309 310 310 311 313 314 315 316 316 316 316 316 315 315 314 313 313 312 312 312 311 311 311 310 309 308 308 308 308 308 308 309 309 310 311 312 312 313 314 315 315 316 316 317 317 317 317 316 317 317 317 318 318 319 320 321 323 324 324 325 325 325
310 311 312 312 312 311 310 310 310 311 312 314 315 316 316 316 316 316 315 314 314 313 313 312 312 312 312 312 311 311 310 309 309 308 308 308 308 308 308 309 311 311 312 313 313 314 315 316 316 317 317 318 317 317 317 317 317 318 319 319 321 322 323 324 325 326 327 327 327
311 312 312 312 311 310 310 310 311 312 314 315 316 316 316 316 315 315 314 314 313 313 312 312 312 312 312 312 311 311 310 310 309 309 309 309 308 308 309 310 311 312 312 313 314 315 315 316 317 317 318 318 318 318 318 318 318 319 320 321 322 323 325 326 327 328 328 328 328
312 312 312 311 311 310 310 311 312 314 315 316 316 316 316 315 315 314 314 313 313 313 313 313 313 313 313 312 312 311 311 310 309 309 309 309 309 309 310 310 311 312 312 313 314 315 316 316 317 318 318 319 319 318 319 319 319 319 321 322 323 324 326 327 328 329 329 330 330
312 312 311 311 310 310 311 312 314 315 316 316 316 316 315 315 314 314 313 313 313 313 313 313 313 313 314 314 313 313 311 310 310 309 309 309 309 310 310 311 311 312 313 314 314 315 316 316 317 318 319 319 319 319 319 319 319 320 322 323 324 326 327 328 329 330 331 331 331
312 311 311 310 310 311 312 313 315 316 316 316 316 316 315 314 314 314 313 313 313 313 314 314 314 314 315 315 314 313 312 311 310 309 309 309 309 310 311 311 312 313 313 314 314 315 316 317 318 318 319 319 319 319 320 320 320 321 323 324 325 327 328 329 330 331 331 332 332
311 310 310 310 311 312 313 315 316 316 316 316 316 315 315 314 314 314 314 314 314 314 314 315 315 315 315 315 314 313 312 311 310 310 309 310 310 311 312 312 313 313 314 314 314 315 316 317 318 318 319 318 319 319 320 320 321 322 323 325 326 328 329 330 331 331 332 332 332
310 310 310 311 312 313 314 315 316 316 316 316 315 315 314 314 314 314 314 314 314 314 315 315 315 315 315 314 314 313 311 311 310 310 310 311 311 312 313 313 313 314 314 314 314 315 316 317 317 318 318 318 319 319 320 321 322 323 324 326 327 328 330 331 331 332 332 332 333
310 310 311 312 313 314 315 316 316 316 316 315 315 315 314 314 314 314 314 314 314 315 315 315 315 315 315 314 314 313 312 311 311 311 312 312 312 313 313 313 314 314 314 313 313 314 315 316 317 317 317 318 318 319 320 321 323 324 325 326 328 329 330 331 332 332 332 333 333
310 311 312 313 314 315 316 316 316 316 316 315 315 315 314 314 314 314 314 315 315 315 315 315 315 315 314 314 314 313 313 312 312 312 312 312 313 313 313 314 313 313 313 312 312 313 314 315 316 316 316 317 318 319 320 322 323 324 325 327 328 330 331 331 332 332 333 333 334